Regional Weather Roundup
Issued by NWS Jackson, KY

Home | Current Version | Previous Version | Text Only | Print | Product List | Glossary Off
Versions: 1 2 3 4 5 6 7 8 9 10 11 12 13 14 15 16 17 18 19 20 21 22 23 24 25 26 27 28 29 30 31 32 33 34 35 36 37 38 39 40 41 42 43 44 45 46 47 48 49 50

442
ASUS43 KJKL 291910
RWRJKL

EAST KENTUCKY HOURLY WEATHER ROUNDUP
NATIONAL WEATHER SERVICE JACKSON KY
300 PM EDT MON AUG 29 2016

NOTE: "FAIR" INDICATES FEW OR NO CLOUDS BELOW 12,000 FEET WITH
NO SIGNIFICANT WEATHER AND/OR OBSTRUCTIONS TO VISIBILITY.

* THESE REPORTS ARE NOT UNDER NWS QUALITY CONTROL AND MAY NOT
  REPORT WEATHER SUCH AS PRECIPITATION AND FOG.

KYZ079-080-083-085-087-088-110-112-115-119-120-292000
...EASTERN KENTUCKY...

CITY           SKY/WX    TMP DP  RH WIND       PRES   REMARKS
JACKSON        PTSUNNY   85  73  67 CALM      30.20F HX  91
LONDON         PTSUNNY   87  70  56 VRB5      30.19F HX  92
SOMERSET*      SUNNY     88  68  51 NE3       30.18F HX  91
MONTICELLO*    SUNNY    N/A N/A N/A N14G25    30.19F
WILLIAMSBURG*  PTCLDY    88  72  58 NW3       30.18F HX  94
MIDDLESBORO*   PTSUNNY   88  69  53 NE5       30.18F HX  91
HARLAN APT*    PTCLDY    88  64  45 N3        30.19F
PIKE CO APT*     N/A     87  70  56 N5        30.21F HX  91
BIG SANDY APT* PTCLDY    90  72  55 CALM      30.19F HX  97
MOREHEAD APT*  CLOUDY    88  72  58 CALM      30.22F HX  94
ASHLAND*       CLOUDY    90  73  58 NE6       30.16F HX  98
$$

KYZ035-036-041-042-044-050-067-078-099-292000
...CENTRAL KENTUCKY...

CITY           SKY/WX    TMP DP  RH WIND       PRES   REMARKS
MT STERLING*   MOSUNNY   88  72  58 NE6       30.21F HX  94
FLEMING/MASON* SUNNY     87  68  52 NE8       30.22S HX  91
DANVILLE*      MOSUNNY   88  73  62 E6        30.20F HX  96
LEXINGTON      MOSUNNY   91  72  53 NE7       30.20F HX  98
FRANKFORT      MOSUNNY   91  70  49 VRB5      30.18F HX  96
LOUISVILLE     MOSUNNY   92  68  45 N9        30.17F HX  96
LEBANON*         N/A     88  73  62 NE3       30.18F HX  96
GLASGOW*       SUNNY     88  72  58 NE3       30.16F HX  95
BOWLING GREEN  PTSUNNY   90  74  59 NE7       30.16F HX  99
$$

KYZ091>093-OHZ055-061-077-WVZ005-015-034-035-042-292000
...SOUTHERN OHIO/WEST VIRGINIA...

CITY           SKY/WX    TMP DP  RH WIND       PRES   REMARKS
COVINGTON      MOSUNNY   89  71  55 E6        30.21F HX  95
COLUMBUS       MOSUNNY   85  69  58 NE8       30.22F
DAYTON         MOSUNNY   84  69  60 NE6       30.25F
WILMINGTON     MOSUNNY   85  70  60 E7        30.23F
HUNTINGTON     MOSUNNY   90  71  53 NE6       30.18F HX  96
CHARLESTON     MOSUNNY   89  68  49 NE6       30.18F HX  93
PINEVILLE*     PTSUNNY   85  68  55 MISG      30.25F
BECKLEY        SUNNY     84  65  52 VRB5      30.26F
BLUEFIELD      MOSUNNY   82  63  52 NE7       30.28F
LOGAN CO APT*    N/A     86  68  54 CALM      30.21F
$$

VAZ002-007-008-TNZ017-027-036-066-071-292000
...SOUTHWEST VIRGINIA/EAST TENNESSEE...

CITY           SKY/WX    TMP DP  RH WIND       PRES   REMARKS
WISE*          MOSUNNY   86  59  39 N8        30.28F
JONESVILLE*      N/A     90  66  45 E5        30.20F HX  92
ABINGDON*      MOSUNNY   88  63  42 E12       30.22F
BRISTOL        MOSUNNY   90  65  43 VRB3      30.18F HX  92
MORRISTOWN*    CLEAR     90  54  29 E6G12     30.17F
SEVIERVILLE*     N/A     88  63  42 VRB5      30.15F
KNOXVILLE      MOSUNNY   92  55  28 E10       30.14F HX  90
OAK RIDGE      SUNNY     91  63  39 VRB3      30.17  HX  92
CROSSVILLE     MOSUNNY   87  66  49 NE8       30.21F
NASHVILLE      MOSUNNY   92  69  47 VRB5      30.15F HX  97
$$

...KEY TO REMARKS...
VSB - VISIBILITY IN MILES
WCI - WIND CHILL INDEX
HX  - HEAT INDEX

$$




USA.gov is the U.S. government's official web portal to all federal, state and local government web resources and services.